DUZEAR1 KABI-KAFW

Flight info

Callsign DUZEAR1
Flight time 0h 34m
Altitude 23000
Route KABI/17L N0279F230 DCT WSTEX DCT AYONA DCT KEHRE DCT DBLSS DCT MOTZA MOTZA1 KAFW/16R
Aircraft PC12/L-SDE2FGIRWY/SB1

Departure

Time 2026-04-27 00:50
Airport Abilene Regional Airport (KABI)

Arrival

Time 2026-04-27 01:25
Airport Perot Field/Fort Worth Alliance Airport (KAFW)
Time Latitude Longitude Altitude Speed Heading
2026-04-26 23:54 32.41409 -99.68196 1776 ft 0 kts 180°
2026-04-27 00:04 32.41410 -99.68196 1786 ft 0 kts 180°
2026-04-27 00:39 32.41406 -99.68204 1776 ft 5 kts 267°
2026-04-27 00:39 32.41406 -99.68250 1776 ft 0 kts 270°
2026-04-27 00:45 32.41382 -99.68264 1776 ft 10 kts 181°
2026-04-27 00:45 32.41319 -99.68269 1776 ft 8 kts 241°
2026-04-27 00:45 32.41286 -99.68355 1776 ft 17 kts 183°
2026-04-27 00:46 32.41149 -99.68355 1776 ft 22 kts 180°
2026-04-27 00:46 32.40982 -99.68354 1776 ft 19 kts 180°
2026-04-27 00:46 32.40869 -99.68353 1776 ft 14 kts 169°
2026-04-27 00:46 32.40841 -99.68205 1776 ft 27 kts 89°
2026-04-27 00:47 32.40846 -99.67970 1776 ft 10 kts 75°
2026-04-27 00:47 32.40846 -99.67964 1776 ft 0 kts 121°
2026-04-27 00:48 32.40844 -99.67959 1776 ft 4 kts 109°
2026-04-27 00:48 32.40843 -99.67800 1776 ft 24 kts 89°
2026-04-27 00:49 32.40844 -99.67601 1777 ft 13 kts 90°
2026-04-27 00:49 32.40844 -99.67591 1777 ft 1 kts 91°
2026-04-27 00:49 32.40841 -99.67491 1779 ft 19 kts 112°
2026-04-27 00:49 32.40716 -99.67476 1778 ft 37 kts 179°
2026-04-27 00:50 32.40241 -99.67474 1817 ft 93 kts 180°
2026-04-27 00:50 32.38624 -99.67171 2641 ft 135 kts 141°
2026-04-27 00:50 32.38395 -99.66091 3515 ft 144 kts 88°
2026-04-27 00:51 32.38884 -99.65002 4265 ft 160 kts 63°
2026-04-27 00:51 32.39526 -99.63858 4913 ft 169 kts 68°
2026-04-27 00:51 32.40100 -99.62635 5691 ft 173 kts 66°
2026-04-27 00:51 32.40702 -99.61375 6446 ft 178 kts 62°
2026-04-27 00:52 32.41332 -99.60094 7178 ft 183 kts 60°
2026-04-27 00:52 32.41972 -99.58793 7940 ft 185 kts 60°
2026-04-27 00:52 32.42620 -99.57469 8710 ft 187 kts 58°
2026-04-27 00:52 32.43281 -99.56127 9472 ft 191 kts 58°
2026-04-27 00:53 32.43955 -99.54755 10182 ft 195 kts 57°
2026-04-27 00:53 32.44637 -99.53362 10913 ft 196 kts 57°
2026-04-27 00:53 32.45324 -99.51961 11654 ft 198 kts 57°
2026-04-27 00:53 32.46022 -99.50540 12399 ft 200 kts 57°
2026-04-27 00:54 32.46724 -99.49105 13132 ft 203 kts 56°
2026-04-27 00:54 32.47204 -99.48128 13621 ft 204 kts 56°
2026-04-27 00:54 32.48155 -99.46186 14484 ft 208 kts 56°
2026-04-27 00:54 32.48884 -99.44696 15148 ft 210 kts 55°
2026-04-27 00:55 32.49622 -99.43187 15814 ft 214 kts 54°
2026-04-27 00:55 32.50370 -99.41658 16488 ft 216 kts 54°
2026-04-27 00:55 32.51128 -99.40109 17180 ft 219 kts 54°
2026-04-27 00:55 32.51893 -99.38543 17940 ft 221 kts 53°
2026-04-27 00:56 32.52667 -99.36958 18577 ft 224 kts 53°
2026-04-27 00:56 32.53452 -99.35353 19212 ft 227 kts 53°
2026-04-27 00:56 32.54247 -99.33722 19853 ft 230 kts 53°
2026-04-27 00:56 32.55052 -99.32069 20505 ft 233 kts 53°
2026-04-27 00:57 32.55873 -99.30392 21150 ft 237 kts 53°
2026-04-27 00:57 32.56703 -99.28691 21797 ft 240 kts 53°
2026-04-27 00:57 32.57547 -99.26963 22405 ft 245 kts 53°
2026-04-27 00:57 32.58411 -99.25195 22693 ft 259 kts 53°
2026-04-27 00:58 32.59373 -99.23243 22705 ft 288 kts 54°
2026-04-27 00:58 32.60411 -99.21106 22710 ft 308 kts 55°
2026-04-27 00:58 32.61497 -99.18859 22714 ft 319 kts 55°
2026-04-27 00:58 32.62615 -99.16554 22716 ft 325 kts 55°
2026-04-27 00:59 32.63752 -99.14220 22715 ft 328 kts 55°
2026-04-27 00:59 32.64895 -99.11869 22717 ft 330 kts 55°
2026-04-27 00:59 32.66040 -99.09510 22720 ft 330 kts 55°
2026-04-27 00:59 32.67187 -99.07146 22726 ft 330 kts 55°
2026-04-27 01:00 32.68334 -99.04782 22726 ft 330 kts 55°
2026-04-27 01:00 32.69479 -99.02420 22731 ft 330 kts 55°
2026-04-27 01:00 32.70625 -99.00056 22740 ft 330 kts 55°
2026-04-27 01:00 32.71769 -98.97693 22739 ft 330 kts 55°
2026-04-27 01:01 32.72911 -98.95331 22736 ft 330 kts 56°
2026-04-27 01:01 32.73666 -98.93768 22732 ft 330 kts 56°
2026-04-27 01:01 32.74810 -98.91403 22734 ft 330 kts 56°
2026-04-27 01:01 32.75948 -98.89041 22731 ft 330 kts 57°
2026-04-27 01:02 32.77025 -98.86631 22724 ft 330 kts 57°
2026-04-27 01:02 32.78124 -98.84240 22724 ft 330 kts 57°
2026-04-27 01:02 32.79580 -98.81073 22724 ft 330 kts 57°
2026-04-27 01:02 32.80311 -98.79456 22721 ft 330 kts 58°
2026-04-27 01:03 32.81398 -98.77043 22723 ft 330 kts 57°
2026-04-27 01:03 32.82485 -98.74649 22726 ft 329 kts 57°
2026-04-27 01:03 32.83570 -98.72262 22723 ft 329 kts 57°
2026-04-27 01:03 32.84659 -98.69858 22718 ft 329 kts 57°
2026-04-27 01:04 32.85743 -98.67462 22714 ft 329 kts 57°
2026-04-27 01:04 32.86805 -98.65111 22710 ft 329 kts 57°
2026-04-27 01:04 32.87907 -98.62673 22697 ft 329 kts 57°
2026-04-27 01:04 32.88991 -98.60274 22697 ft 329 kts 57°
2026-04-27 01:05 32.90073 -98.57880 22698 ft 329 kts 57°
2026-04-27 01:05 32.91151 -98.55490 22694 ft 328 kts 57°
2026-04-27 01:05 32.92216 -98.53126 22696 ft 328 kts 57°
2026-04-27 01:05 32.93308 -98.50703 22701 ft 328 kts 57°
2026-04-27 01:06 32.94370 -98.48345 22699 ft 328 kts 57°
2026-04-27 01:06 32.95447 -98.45952 22703 ft 328 kts 57°
2026-04-27 01:06 32.96523 -98.43557 22700 ft 328 kts 57°
2026-04-27 01:06 32.97597 -98.41166 22700 ft 328 kts 57°
2026-04-27 01:07 32.98654 -98.38760 22695 ft 328 kts 60°
2026-04-27 01:07 32.99654 -98.36324 22696 ft 328 kts 59°
2026-04-27 01:07 33.00693 -98.33865 22699 ft 328 kts 59°
2026-04-27 01:07 33.01700 -98.31465 22699 ft 328 kts 59°
2026-04-27 01:08 33.02710 -98.29029 22697 ft 328 kts 60°
2026-04-27 01:08 33.03720 -98.26590 22700 ft 328 kts 59°
2026-04-27 01:08 33.04730 -98.24159 22700 ft 328 kts 59°
2026-04-27 01:08 33.05770 -98.21752 22700 ft 326 kts 58°
2026-04-27 01:09 33.06817 -98.19347 22699 ft 327 kts 59°
2026-04-27 01:09 33.07844 -98.16929 22711 ft 327 kts 59°
2026-04-27 01:09 33.08885 -98.14514 22715 ft 327 kts 58°
2026-04-27 01:09 33.09934 -98.12108 22726 ft 327 kts 58°
2026-04-27 01:10 33.10979 -98.09697 22725 ft 327 kts 58°
2026-04-27 01:10 33.12018 -98.07288 22730 ft 327 kts 58°
2026-04-27 01:10 33.13058 -98.04876 22738 ft 327 kts 58°
2026-04-27 01:10 33.14100 -98.02463 22741 ft 327 kts 58°
2026-04-27 01:11 33.15141 -98.00052 22743 ft 327 kts 58°
2026-04-27 01:11 33.16183 -97.97634 22753 ft 327 kts 58°
2026-04-27 01:11 33.17224 -97.95217 22755 ft 327 kts 58°
2026-04-27 01:11 33.18238 -97.92852 22096 ft 316 kts 59°
2026-04-27 01:12 33.19268 -97.90469 20757 ft 328 kts 59°
2026-04-27 01:12 33.20308 -97.88053 19681 ft 326 kts 59°
2026-04-27 01:12 33.21339 -97.85646 18560 ft 326 kts 59°
2026-04-27 01:12 33.22374 -97.83234 17329 ft 326 kts 60°
2026-04-27 01:13 33.23345 -97.80975 16066 ft 326 kts 60°
2026-04-27 01:13 33.24377 -97.78562 14812 ft 324 kts 62°
2026-04-27 01:13 33.25154 -97.76060 13658 ft 320 kts 77°
2026-04-27 01:13 33.25433 -97.73459 12465 ft 313 kts 91°
2026-04-27 01:14 33.25242 -97.70917 11359 ft 302 kts 104°
2026-04-27 01:14 33.24882 -97.69333 10636 ft 295 kts 113°
2026-04-27 01:14 33.24202 -97.67486 9754 ft 285 kts 122°
2026-04-27 01:15 33.23314 -97.65385 8615 ft 280 kts 121°
2026-04-27 01:15 33.22459 -97.63324 7526 ft 274 kts 121°
2026-04-27 01:15 33.21624 -97.61303 6478 ft 269 kts 120°
2026-04-27 01:15 33.20807 -97.59334 5409 ft 262 kts 121°
2026-04-27 01:16 33.20032 -97.57432 4800 ft 242 kts 119°
2026-04-27 01:16 33.19552 -97.55462 4710 ft 252 kts 105°
2026-04-27 01:16 33.19460 -97.53349 4583 ft 257 kts 95°
2026-04-27 01:16 33.19475 -97.51219 4439 ft 256 kts 96°
2026-04-27 01:17 33.19471 -97.49106 4274 ft 256 kts 96°
2026-04-27 01:17 33.19468 -97.46994 4109 ft 253 kts 96°
2026-04-27 01:17 33.19474 -97.44935 3945 ft 251 kts 96°
2026-04-27 01:17 33.19476 -97.42821 3773 ft 249 kts 97°
2026-04-27 01:18 33.19247 -97.40822 3598 ft 231 kts 113°
2026-04-27 01:18 33.18714 -97.39228 3562 ft 194 kts 120°
2026-04-27 01:18 33.17990 -97.37917 3379 ft 178 kts 135°
2026-04-27 01:18 33.17112 -97.36854 3217 ft 177 kts 144°
2026-04-27 01:19 33.16136 -97.36039 3079 ft 162 kts 154°
2026-04-27 01:19 33.15121 -97.35473 3000 ft 150 kts 162°
2026-04-27 01:19 33.14201 -97.35156 3001 ft 137 kts 169°
2026-04-27 01:19 33.13239 -97.34960 3010 ft 142 kts 171°
2026-04-27 01:20 33.12265 -97.34757 3002 ft 144 kts 171°
2026-04-27 01:20 33.11267 -97.34550 2843 ft 143 kts 171°
2026-04-27 01:20 33.10359 -97.34363 2659 ft 118 kts 171°
2026-04-27 01:20 33.09633 -97.34215 2515 ft 103 kts 172°
2026-04-27 01:21 33.08932 -97.34072 2387 ft 104 kts 171°
2026-04-27 01:21 33.08258 -97.33932 2251 ft 97 kts 171°
2026-04-27 01:21 33.07578 -97.33793 2133 ft 101 kts 170°
2026-04-27 01:21 33.06904 -97.33656 1990 ft 90 kts 170°
2026-04-27 01:22 33.06310 -97.33533 1879 ft 92 kts 169°
2026-04-27 01:22 33.05653 -97.33399 1750 ft 91 kts 170°
2026-04-27 01:22 33.05024 -97.33270 1634 ft 94 kts 171°
2026-04-27 01:22 33.04362 -97.33134 1510 ft 97 kts 171°
2026-04-27 01:23 33.03701 -97.32999 1381 ft 96 kts 170°
2026-04-27 01:23 33.03051 -97.32866 1248 ft 93 kts 170°
2026-04-27 01:23 33.02416 -97.32734 1137 ft 92 kts 170°
2026-04-27 01:23 33.01797 -97.32609 993 ft 88 kts 171°
2026-04-27 01:24 33.01211 -97.32490 882 ft 87 kts 171°
2026-04-27 01:24 33.00617 -97.32367 775 ft 87 kts 169°
2026-04-27 01:24 33.00046 -97.32252 686 ft 75 kts 171°
2026-04-27 01:24 32.99607 -97.32162 684 ft 57 kts 171°
2026-04-27 01:25 32.99285 -97.32095 687 ft 45 kts 170°
2026-04-27 01:25 32.99017 -97.32041 687 ft 32 kts 170°
2026-04-27 01:25 32.98765 -97.31989 687 ft 41 kts 170°
2026-04-27 01:25 32.98575 -97.31950 687 ft 16 kts 169°
2026-04-27 01:26 32.98523 -97.31857 687 ft 19 kts 81°
2026-04-27 01:26 32.98548 -97.31682 687 ft 23 kts 80°
2026-04-27 01:26 32.98481 -97.31599 683 ft 16 kts 170°
2026-04-27 01:26 32.98370 -97.31577 686 ft 5 kts 170°
2026-04-27 01:27 32.98369 -97.31577 687 ft 0 kts 170°
2026-04-27 01:31 32.98340 -97.31571 684 ft 6 kts 171°
2026-04-27 01:31 32.98334 -97.31512 687 ft 16 kts 79°
2026-04-27 01:31 32.98343 -97.31449 687 ft 6 kts 80°
2026-04-27 01:31 32.98323 -97.31409 687 ft 7 kts 162°
2026-04-27 01:32 32.98299 -97.31404 687 ft 1 kts 171°
2026-04-27 01:32 32.98294 -97.31403 687 ft 0 kts 173°
2026-04-27 01:32 32.98292 -97.31403 687 ft 0 kts 173°